TimeEDT,TemperatureF,Dew PointF,Humidity,Sea Level PressureIn,VisibilityMPH,Wind Direction,Wind SpeedMPH,Gust SpeedMPH,PrecipitationIn,Events,Conditions,WindDirDegrees,DateUTC
12:54 AM,37.0,30.0,76,30.01,10.0,Calm,Calm,-,N/A,,Overcast,0,2013-04-14 04:54:00
1:54 AM,37.9,30.0,73,30.03,10.0,Calm,Calm,-,N/A,,Overcast,0,2013-04-14 05:54:00
2:54 AM,37.9,30.0,73,30.03,10.0,NE,3.5,-,N/A,,Overcast,40,2013-04-14 06:54:00
3:54 AM,37.9,28.0,68,30.04,10.0,NE,4.6,-,0.00,,Overcast,40,2013-04-14 07:54:00
4:54 AM,39.0,27.0,62,30.04,10.0,NNE,3.5,-,N/A,,Overcast,30,2013-04-14 08:54:00
5:54 AM,39.0,28.0,65,30.05,10.0,ESE,3.5,-,N/A,,Overcast,110,2013-04-14 09:54:00
6:54 AM,39.0,27.0,62,30.05,10.0,ENE,5.8,-,N/A,,Overcast,70,2013-04-14 10:54:00
7:54 AM,39.0,27.0,62,30.04,10.0,East,6.9,-,N/A,,Overcast,80,2013-04-14 11:54:00
8:54 AM,39.9,27.0,60,30.04,10.0,East,11.5,16.1,N/A,,Overcast,90,2013-04-14 12:54:00
9:54 AM,41.0,27.0,57,30.04,10.0,SE,15.0,-,N/A,,Overcast,130,2013-04-14 13:54:00
10:54 AM,42.1,28.9,60,30.04,10.0,East,11.5,-,N/A,,Overcast,100,2013-04-14 14:54:00
11:54 AM,45.0,33.1,63,30.01,10.0,ESE,13.8,-,0.00,Rain,Light Rain,110,2013-04-14 15:54:00
12:54 PM,51.1,35.1,54,29.98,10.0,ESE,16.1,26.5,0.00,,Partly Cloudy,120,2013-04-14 16:54:00
1:54 PM,54.0,37.0,53,29.93,10.0,SE,16.1,-,N/A,,Clear,130,2013-04-14 17:54:00
2:54 PM,57.9,39.9,51,29.91,10.0,ESE,16.1,23.0,N/A,,Clear,120,2013-04-14 18:54:00
3:54 PM,60.1,42.1,51,29.89,10.0,ESE,19.6,-,N/A,,Clear,110,2013-04-14 19:54:00
4:54 PM,61.0,42.1,50,29.85,10.0,ESE,17.3,-,N/A,,Clear,120,2013-04-14 20:54:00
5:54 PM,61.0,44.1,54,29.85,10.0,SE,23.0,-,N/A,,Clear,130,2013-04-14 21:54:00
6:54 PM,61.0,45.0,56,29.84,10.0,SE,18.4,32.2,N/A,,Clear,130,2013-04-14 22:54:00
7:54 PM,57.9,45.0,62,29.83,10.0,ESE,17.3,-,N/A,,Clear,120,2013-04-14 23:54:00
8:54 PM,57.0,45.0,64,29.82,10.0,ESE,18.4,-,N/A,,Clear,120,2013-04-15 00:54:00
9:54 PM,54.0,44.1,69,29.83,10.0,ESE,15.0,-,N/A,,Clear,120,2013-04-15 01:54:00
10:54 PM,55.0,44.1,67,29.82,10.0,ESE,16.1,24.2,N/A,,Clear,120,2013-04-15 02:54:00
11:54 PM,55.0,44.1,67,29.81,10.0,SE,18.4,-,N/A,,Clear,130,2013-04-15 03:54:00